Location: Old Broadwell Mill Observatory
(33.8015°N, 85.8137°W)
Time: 17:13:27
(UTC-05:00)

Amateur Radio Satellites - All Passes

Search period start: 30 August 2014 16:43
Search period end: 31 August 2014 16:43
Location: Old Broadwell Mill Observatory, 33.8015°N, 85.8137°W

Satellite Date Start Highest point End Downlink Frequencies (MHz)
Time Altitude Azimuth
PANSAT 30 Aug 16:44:03 16:45:57 13° 202° (SSW) 16:47:51 not established
Hamsat 30 Aug 17:07:26 17:10:40 21° 70° (ENE) 17:13:55 145.90 MHz
OPAL 30 Aug 17:13:41 17:18:55 78° 105° (ESE) 17:24:06 ?
RS-15 30 Aug 17:14:22 17:25:34 81° 61° (ENE) 17:37:15 29.354 - 29.394 USB, Beacon 29.352 USB
Sapphire 30 Aug 17:17:34 17:22:50 56° 298° (WNW) 17:28:10 437.095 MHz 1200 baud AX-25 AFSK
Uosat F 30 Aug 17:29:36 17:32:54 18° 265° (W) 17:36:13 435.120 FM
ISS 30 Aug 17:42:21 17:45:40 68° 43° (NE) 17:48:58 145.800 FM
PCSat 30 Aug 17:47:55 17:52:33 29° 304° (NW) 17:57:14 145.825 MHz
SO-67 30 Aug 18:10:39 18:11:37 11° 69° (ENE) 18:12:34 435.3500 MHz FM
JAS-2 30 Aug 18:23:07 18:29:27 62° 258° (WSW) 18:35:06 435.800 - 435.900 CW/SSB, 435.910 FM
Hamsat 30 Aug 18:42:48 18:46:26 27° 264° (W) 18:50:07 145.90 MHz
OPAL 30 Aug 18:55:23 18:57:05 12° 299° (WNW) 18:58:46 ?
STRAND 1 30 Aug 18:57:27 19:02:07 36° 98° (E) 19:06:47 ?
RS-15 30 Aug 19:28:53 19:36:42 22° 258° (WSW) 19:44:48 29.354 - 29.394 USB, Beacon 29.352 USB
SO-67 30 Aug 19:41:12 19:44:18 31° 262° (W) 19:47:26 435.3500 MHz FM
HO-68 30 Aug 20:20:00 20:26:40 44° 68° (ENE) 20:33:20 435.675 MHz FM
UKube-1 30 Aug 20:29:42 20:32:37 18° 68° (ENE) 20:35:32 145.840 MHz, 145.915 MHz
Oscar 11 30 Aug 20:37:02 20:38:52 13° 66° (ENE) 20:40:42 145.825 FM, Beacon 2401.500 USB
STRAND 1 30 Aug 20:37:11 20:41:03 22° 292° (WNW) 20:44:55 ?
AO-40 30 Aug 21:16:34 01:00:32 43° 189° (S) 06:43:58 Beacon 2401.320
Saudisat 1A 30 Aug 21:18:56 21:21:32 16° 109° (ESE) 21:24:08 436.775 MHz
KITSAT 1 30 Aug 21:54:15 21:59:50 21° 103° (ESE) 22:05:24 435.175 FM
UKube-1 30 Aug 22:04:39 22:08:32 32° 262° (W) 22:12:27 145.840 MHz, 145.915 MHz
HO-68 30 Aug 22:08:23 22:14:25 30° 263° (W) 22:20:29 435.675 MHz FM
Oscar 11 30 Aug 22:10:25 22:14:35 47° 261° (W) 22:18:47 145.825 FM, Beacon 2401.500 USB
FUNcube-1 30 Aug 22:36:11 22:40:18 67° 259° (W) 22:44:31 145.950 - 145.970 MHz USB
MaSat-1 30 Aug 22:47:01 22:51:18 46° 63° (ENE) 22:54:58 437.345 MHz
Saudisat 1A 30 Aug 22:56:34 23:00:44 41° 303° (WNW) 23:04:55 436.775 MHz
KITSAT 1 30 Aug 23:46:21 23:54:25 71° 299° (WNW) 00:02:30 435.175 FM
MaSat-1 31 Aug 00:26:57 00:27:32 10° 262° (W) 00:28:06 437.345 MHz
PCSat 31 Aug 00:57:36 01:00:09 13° 49° (NE) 01:02:42 145.825 MHz
Oscar 19 31 Aug 01:07:01 01:09:49 15° 93° (E) 01:12:36 437.125 CW, 437.150 USB
AO-Echo 31 Aug 01:34:50 01:35:41 10° 92° (E) 01:36:31 ?
ITAMSAT 1 31 Aug 01:40:17 01:42:24 12° 92° (E) 01:44:31 435.822 SSB
Oscar 16 31 Aug 01:40:19 01:45:02 35° 98° (E) 01:49:44 437.025 USB, Beacon 2401.1428
KITSAT 1 31 Aug 01:46:55 01:51:19 15° 320° (NW) 01:55:43 435.175 FM
Uribyol 2 31 Aug 01:49:06 01:52:29 17° 94° (E) 01:55:51 436.500 FM
JAS-1B 31 Aug 01:57:53 02:02:14 19° 91° (E) 02:06:17 435.800 - 435.900 CW/SSB
AO-27 31 Aug 02:07:30 02:11:47 26° 96° (E) 02:16:03 436.795 MHz FM
Sapphire 31 Aug 02:09:24 02:14:41 50° 61° (ENE) 02:19:55 437.095 MHz 1200 baud AX-25 AFSK
Gurwin Techsat 1B 31 Aug 02:36:48 02:40:50 22° 95° (E) 02:44:51 435.225 FM
PCSat 31 Aug 02:38:46 02:44:12 81° 246° (WSW) 02:49:36 145.825 MHz
Oscar 19 31 Aug 02:44:22 02:49:25 54° 287° (WNW) 02:54:27 437.125 CW, 437.150 USB
SO-50 31 Aug 03:07:34 03:11:53 53° 115° (ESE) 03:16:18 436.795 FM
AO-Echo 31 Aug 03:10:09 03:14:46 59° 285° (WNW) 03:19:25 ?
ITAMSAT 1 31 Aug 03:17:07 03:22:14 62° 286° (WNW) 03:27:20 435.822 SSB
Oscar 16 31 Aug 03:20:05 03:24:09 24° 292° (WNW) 03:28:12 437.025 USB, Beacon 2401.1428
Uribyol 2 31 Aug 03:27:10 03:32:07 46° 288° (WNW) 03:37:03 436.500 FM
TMSAT-1 31 Aug 03:27:19 03:32:28 51° 100° (E) 03:37:36 436.925 FM
AO-27 31 Aug 03:46:43 03:51:13 31° 290° (WNW) 03:55:44 436.795 MHz FM
JAS-1B 31 Aug 03:47:07 03:53:21 47° 290° (WNW) 03:58:52 435.800 - 435.900 CW/SSB
Oscar 10/S400 31 Aug 03:53:25 05:12:38 34° 246° (WSW) 09:09:04 145.825 - 145.975 CW/USB, Beacon 145.810 USB
Sapphire 31 Aug 03:54:07 03:57:38 18° 255° (WSW) 04:01:08 437.095 MHz 1200 baud AX-25 AFSK
Uosat F 31 Aug 04:01:57 04:05:18 18° 95° (E) 04:08:37 435.120 FM
Gurwin Techsat 1B 31 Aug 04:15:59 04:20:51 38° 289° (WNW) 04:25:41 435.225 FM
OPAL 31 Aug 04:24:47 04:29:49 88° 74° (ENE) 04:34:58 ?
AO-7 31 Aug 04:42:27 04:50:30 53° 102° (ESE) 04:58:30 29.400 - 29.500 MHz
SO-50 31 Aug 04:50:11 04:52:46 15° 312° (NW) 04:55:24 436.795 FM
UOSAT-12 31 Aug 05:05:21 05:09:53 68° 116° (ESE) 05:14:32 437.025 FM, 437.400 FM
TMSAT-1 31 Aug 05:08:37 05:11:55 17° 294° (WNW) 05:15:13 436.925 FM
RS-15 31 Aug 05:28:07 05:32:51 14° 99° (E) 05:37:30 29.354 - 29.394 USB, Beacon 29.352 USB
JAS-2 31 Aug 05:37:03 05:40:34 17° 96° (E) 05:44:15 435.800 - 435.900 CW/SSB, 435.910 FM
Uosat F 31 Aug 05:39:31 05:44:12 41° 288° (WNW) 05:48:52 435.120 FM
STRAND 1 31 Aug 06:09:43 06:14:18 35° 71° (ENE) 06:18:54 ?
Hamsat 31 Aug 06:31:42 06:36:03 72° 101° (E) 06:40:19 145.90 MHz
AO-7 31 Aug 06:35:56 06:42:50 31° 299° (WNW) 06:49:43 29.400 - 29.500 MHz
UOSAT-12 31 Aug 06:48:15 06:50:30 13° 313° (NW) 06:52:47 437.025 FM, 437.400 FM
SO-67 31 Aug 07:09:00 07:11:40 20° 96° (E) 07:14:18 435.3500 MHz FM
JAS-2 31 Aug 07:20:44 07:25:47 47° 287° (WNW) 07:31:16 435.800 - 435.900 CW/SSB, 435.910 FM
Saudisat 1A 31 Aug 07:26:43 07:31:00 48° 58° (ENE) 07:35:15 436.775 MHz
RS-15 31 Aug 07:32:15 07:43:24 79° 115° (ESE) 07:54:19 29.354 - 29.394 USB, Beacon 29.352 USB
KITSAT 1 31 Aug 07:44:31 07:51:27 30° 51° (NE) 07:58:20 435.175 FM
STRAND 1 31 Aug 07:49:37 07:53:30 22° 264° (W) 07:57:25 ?
SO-67 31 Aug 08:42:19 08:44:31 16° 289° (WNW) 08:46:43 435.3500 MHz FM
ISS 31 Aug 08:46:54 08:48:51 15° 127° (SE) 08:50:49 145.800 FM
Saudisat 1A 31 Aug 09:08:03 09:10:07 13° 252° (WSW) 09:12:12 436.775 MHz
HO-68 31 Aug 09:38:53 09:46:01 67° 103° (ESE) 09:53:07 435.675 MHz FM
KITSAT 1 31 Aug 09:39:21 09:47:10 56° 249° (WSW) 09:54:57 435.175 FM
RS-15 31 Aug 09:47:51 09:56:52 28° 317° (NW) 10:05:53 29.354 - 29.394 USB, Beacon 29.352 USB
UKube-1 31 Aug 09:56:18 10:00:34 55° 101° (E) 10:04:48 145.840 MHz, 145.915 MHz
Oscar 11 31 Aug 10:01:57 10:06:04 40° 99° (E) 10:10:09 145.825 FM, Beacon 2401.500 USB
ISS 31 Aug 10:22:11 10:25:19 39° 321° (NW) 10:28:28 145.800 FM
FUNcube-1 31 Aug 10:29:10 10:33:15 32° 97° (E) 10:37:21 145.950 - 145.970 MHz USB
PANSAT 31 Aug 11:18:25 11:21:33 23° 165° (SSE) 11:24:41 not established
HO-68 31 Aug 11:28:05 11:33:02 21° 299° (WNW) 11:38:01 435.675 MHz FM
UKube-1 31 Aug 11:35:02 11:36:15 11° 295° (WNW) 11:37:27 145.840 MHz, 145.915 MHz
Oscar 11 31 Aug 11:39:25 11:41:52 15° 293° (WNW) 11:44:18 145.825 FM, Beacon 2401.500 USB
SO-50 31 Aug 11:43:27 11:46:57 20° 51° (NE) 11:50:29 436.795 FM
FUNcube-1 31 Aug 12:06:03 12:09:24 20° 291° (WNW) 12:12:45 145.950 - 145.970 MHz USB
Oscar 19 31 Aug 12:20:35 12:23:28 15° 65° (ENE) 12:26:22 437.125 CW, 437.150 USB
MaSat-1 31 Aug 12:30:05 12:34:37 46° 107° (ESE) 12:39:31 437.345 MHz
JAS-1B 31 Aug 12:36:33 12:43:04 21° 61° (ENE) 12:49:09 435.800 - 435.900 CW/SSB
AO-Echo 31 Aug 12:44:28 12:45:45 11° 64° (ENE) 12:47:01 ?
Oscar 16 31 Aug 12:53:34 12:58:10 34° 70° (ENE) 13:02:48 437.025 USB, Beacon 2401.1428
ITAMSAT 1 31 Aug 12:54:50 12:57:25 14° 64° (ENE) 12:59:59 435.822 SSB
PANSAT 31 Aug 12:57:46 13:01:21 37° 178° (S) 13:04:56 not established
Uribyol 2 31 Aug 13:03:36 13:07:04 19° 66° (ENE) 13:10:32 436.500 FM
AO-27 31 Aug 13:22:04 13:26:22 27° 69° (ENE) 13:30:40 436.795 MHz FM
SO-50 31 Aug 13:23:07 13:27:42 44° 246° (WSW) 13:32:18 436.795 FM
UOSAT-12 31 Aug 13:39:22 13:43:01 22° 51° (NE) 13:46:37 437.025 FM, 437.400 FM
Gurwin Techsat 1B 31 Aug 13:54:15 13:58:27 24° 68° (ENE) 14:02:39 435.225 FM
Oscar 19 31 Aug 13:57:15 14:02:17 55° 259° (W) 14:07:23 437.125 CW, 437.150 USB
MaSat-1 31 Aug 14:08:24 14:11:55 19° 304° (NW) 14:15:33 437.345 MHz
Oscar 10/S400 31 Aug 14:14:29 14:33:18 19° 153° (SSE) 14:46:00 145.825 - 145.975 CW/USB, Beacon 145.810 USB
AO-Echo 31 Aug 14:18:52 14:23:56 72° 258° (WSW) 14:28:51 ?
JAS-1B 31 Aug 14:22:41 14:32:36 88° 255° (WSW) 14:41:40 435.800 - 435.900 CW/SSB
RS-15 31 Aug 14:27:27 14:34:22 18° 31° (NNE) 14:41:22 29.354 - 29.394 USB, Beacon 29.352 USB
ITAMSAT 1 31 Aug 14:31:15 14:36:20 61° 259° (WSW) 14:41:27 435.822 SSB
Oscar 16 31 Aug 14:33:30 14:37:31 23° 265° (W) 14:41:35 437.025 USB, Beacon 2401.1428
PANSAT 31 Aug 14:37:49 14:41:12 29° 191° (S) 14:44:34 not established
Uribyol 2 31 Aug 14:41:16 14:46:09 44° 260° (W) 14:51:05 436.500 FM
TMSAT-1 31 Aug 14:44:11 14:49:19 54° 73° (ENE) 14:54:28 436.925 FM
AO-27 31 Aug 15:01:15 15:05:44 29° 263° (W) 15:10:14 436.795 MHz FM
Sapphire 31 Aug 15:09:09 15:09:44 10° 102° (ESE) 15:10:19 437.095 MHz 1200 baud AX-25 AFSK
Uosat F 31 Aug 15:12:00 15:15:13 17° 66° (ENE) 15:18:26 435.120 FM
UOSAT-12 31 Aug 15:18:56 15:23:16 37° 247° (WSW) 15:27:30 437.025 FM, 437.400 FM
Gurwin Techsat 1B 31 Aug 15:33:23 15:38:11 35° 262° (W) 15:43:00 435.225 FM
PCSat 31 Aug 15:34:38 15:38:47 23° 106° (ESE) 15:42:57 145.825 MHz
AO-7 31 Aug 15:36:58 15:44:56 52° 67° (ENE) 15:52:53 29.400 - 29.500 MHz
JAS-1B 31 Aug 16:17:45 16:23:37 18° 269° (W) 16:29:18 435.800 - 435.900 CW/SSB
PANSAT 31 Aug 16:19:10 16:20:52 13° 202° (SSW) 16:22:33 not established
TMSAT-1 31 Aug 16:26:36 16:29:30 15° 267° (W) 16:32:25 436.925 FM
